BEIDOU-3 M4 (C22)

Last updated on Wed Aug 26 2026 00:04:16 GMT+0000 (Coordinated Universal Time)

1 43207U 18018A 26236.39471310 -.00000007 00000+0 00000+0 0 9997 2 43207 56.7132 60.9017 0006470 40.6786 319.4313 1.86231452 58013
UTC large
Height (km)
Speed (km/s)
/
Latitude / Longitude
Inclination (degrees)
Orbital Period (minutes)
Azimuth
Elevation
Range (km)
Doppler Factor

Next 0 passes for location: London (51.5072 / 0.1276)

No passes found over London.
BEIDOU-3 M4 (C22)